SCP
2 2 2 2 1 2 2 0 0 1 3 2 1 0 0 0 0 0 0 0 0 0 0 0 0 0 0 0 0 0 0 0 0 0 0 0 0 0 0 0 0 0 0
1 1 2 2 2 1 1 0 1 2 1 1 1 0 0 0 0 0 0 0 0 0 0 0 0 0 0 0 0 0 0 0 0 0 0 0 0 0 0 0 0 0 0
0 1 1 2 2 2 2 1 3 3 2 1 0 0 0 0 0 0 0 0 0 0 0 0 0 0 0 0 0 0 0 0 0 0 0 0 0 0 0 0 0 0 0
-0 1 1 1 1 3 3 3 3 2 2 1 0 0 0 0 0 0 0 0 0 0 0 0 0 0 0 0 0 0 0 0 0 0 0 0 0 0 0 0 0 0 0
-0 0 1 2 1 2 2 3 2 1 1 0 0 0 0 0 0 0 0 0 0 0 0 0 0 0 0 0 0 0 0 0 0 0 0 0 0 0 0 0 0 0 0
-1 0 1 2 2 2 1 2 1 1 0 0 0 0 0 0 0 0 0 0 0 0 0 0 0 0 0 0 0 0 0 0 0 0 0 0 0 0 0 0 0 0 0
-1 1 0 1 2 1 1 1 1 0 0 0 0 0 0 0 0 0 0 0 0 0 0 0 0 0 0 0 0 0 0 0 0 0 0 0 0 0 0 0 0 0 0
0 0 0 0 1 2 1 1 0 0 0 0 0 0 0 0 0 0 0 0 0 0 0 0 0 0 0 0 0 0 0 0 0 0 0 0 0 0 0 0 0 0 0
1 0 1 1 1 1 1 0 0 0 0 0 0 0 0 0 0 0 0 0 0 0 0 0 0 0 0 0 0 0 0 0 0 0 0 0 0 -0 0 0 0 0 0
1 1 2 1 1 0 0 0 0 0 0 0 0 0 0 0 0 0 0 0 0 0 0 0 0 0 0 0 0 0 0 0 0 0 0 -0 -0 -0 0 0 0 0 0
0 1 2 1 1 0 0 0 0 0 0 0 0 0 0 0 0 0 0 0 0 0 0 0 0 0 0 0 0 0 0 0 0 0 0 0 0 0 0 0 0 0 0
0 0 1 1 0 0 0 0 0 0 0 0 0 0 0 0 0 0 0 0 0 0 0 0 0 0 0 0 0 0 0 0 0 0 0 0 0 0 0 0 0 0 0
0 1 1 0 0 0 0 0 0 0 0 0 0 0 0 0 0 0 0 0 0 0 0 0 0 0 0 0 0 0 0 0 0 0 0 0 0 0 0 0 0 0 0
1 0 0 0 0 0 0 0 0 0 0 0 0 0 0 0 0 0 0 0 0 0 0 0 0 0 0 0 0 0 0 0 0 0 0 0 0 0 0 0 0 0 0
1 0 0 0 0 0 0 0 0 0 0 0 0 0 0 0 0 0 0 0 0 0 0 0 0 0 0 0 0 0 0 0 0 0 0 0 0 0 0 0 0 0 0
0 0 0 0 0 0 0 0 0 0 0 0 0 0 0 0 0 0 0 0 0 0 0 0 0 0 0 0 0 0 0 0 0 0 0 0 0 0 0 0 0 0 0
0 0 0 0 0 0 0 0 0 0 0 0 0 0 0 0 0 0 0 0 0 0 0 0 0 0 0 0 0 0 0 0 0 0 0 0 0 0 0 0 0 0 0
0 0 0 0 0 0 0 0 0 0 0 0 0 0 -0 0 0 0 0 0 0 0 0 0 0 0 0 0 0 0 0 0 0 0 0 0 0 0 0 0 0 0 0
0 0 0 0 0 0 0 0 0 0 0 0 0 0 0 -0 0 0 0 0 0 0 0 0 0 0 0 0 0 0 0 0 0 0 0 0 0 0 0 0 0 0 0
0 0 0 0 0 0 0 0 0 0 0 0 0 0 0 0 0 0 0 0 0 0 0 0 0 0 0 0 0 0 0 0 0 0 0 0 0 0 0 0 0 0 0
0 0 0 0 0 0 0 0 0 0 0 0 0 0 0 0 0 0 0 0 0 0 0 0 0 0 0 0 0 0 0 0 0 0 0 0 0 0 0 0 0 0 0
0 0 0 0 0 0 0 0 0 0 0 0 0 0 0 0 0 0 0 0 0 0 0 0 0 0 0 0 0 0 0 0 0 0 0 0 0 0 0 0 0 0 0
0 0 0 0 0 0 0 0 0 0 0 0 0 0 0 0 0 0 0 0 0 0 0 0 0 0 0 0 0 0 0 0 0 0 0 0 0 0 0 0 0 0 0
0 0 0 0 0 0 0 0 0 0 0 0 0 0 0 0 0 0 0 0 0 0 0 0 0 0 0 0 0 0 0 0 0 0 0 0 0 0 0 0 0 0 0
0 0 0 0 0 0 0 0 0 0 0 0 0 0 0 0 0 0 0 0 0 0 0 0 0 0 0 0 0 0 0 0 0 0 0 0 0 0 0 0 0 0 0
0 0 0 0 0 0 0 0 0 0 0 0 0 0 0 0 0 0 0 0 0 0 0 0 0 0 0 0 0 0 0 0 0 0 0 0 0 0 0 0 0 0 0
Wind_Speed_500mb
62 61 63 74 75 71 76 73 67 61 61 52 47 59 61 48 46 45 42 36 34 33 32 44 33 21 12 7 7 13 7 14 6 9 13 17 24 31 27 32 35 29 32
71 58 66 68 77 65 60 68 64 56 66 60 59 64 56 56 52 47 44 37 43 37 31 36 28 24 20 13 6 14 7 11 16 12 10 9 16 29 20 27 29 21 32
69 54 60 63 71 73 69 69 67 73 75 66 64 57 59 57 55 51 43 39 40 37 35 30 28 21 19 18 15 11 8 12 9 13 9 4 13 21 19 24 25 19 36
47 70 50 71 69 79 77 70 65 65 80 72 67 59 63 59 56 51 47 41 41 38 35 29 23 21 19 16 13 14 15 14 11 12 3 8 19 14 16 28 26 32 27
59 54 57 73 72 72 86 74 70 66 54 60 65 65 66 63 57 53 49 47 45 44 38 36 30 21 13 16 16 18 23 17 17 9 4 14 13 17 24 31 24 33 22
59 48 78 75 81 78 68 80 81 75 72 68 62 67 68 63 54 59 56 54 49 45 46 32 27 20 18 21 15 14 14 20 24 15 11 5 12 18 23 30 30 42 24
42 65 60 68 78 81 82 82 80 82 86 74 75 73 73 60 59 63 58 52 51 46 36 29 25 22 19 19 16 15 17 14 13 7 7 11 16 24 26 29 37 18 28
43 40 69 63 80 78 85 89 80 101 95 100 87 81 74 66 64 64 54 52 50 42 34 32 23 23 25 21 19 18 17 14 15 13 13 20 23 19 20 23 23 21 28
52 38 49 51 69 65 86 91 95 96 110 98 93 86 78 75 65 63 57 56 50 44 42 35 29 23 26 26 23 16 22 22 18 17 22 23 31 28 22 20 22 20 31
54 44 53 57 72 81 73 73 105 105 113 104 99 94 80 72 63 61 59 58 52 46 38 34 29 26 35 35 30 16 20 16 17 23 29 27 25 26 30 25 32 30 31
58 46 55 53 78 83 90 74 103 103 108 104 95 86 76 69 65 64 54 54 49 43 39 34 27 32 36 37 29 25 20 21 23 20 17 17 16 13 24 36 37 43 49
56 48 57 58 77 67 93 103 108 103 103 100 91 82 72 72 75 67 52 44 41 36 37 33 31 33 38 38 35 25 27 29 23 14 8 7 4 10 18 30 35 33 39
57 63 73 76 76 57 95 104 104 101 104 106 96 86 81 84 79 68 55 41 37 33 29 26 30 32 36 34 28 34 33 27 21 16 9 7 14 22 18 20 25 28 27
56 69 84 76 68 64 81 98 100 104 106 106 94 86 91 90 82 73 63 53 50 44 30 30 30 33 33 35 41 34 28 23 21 18 13 12 13 13 16 16 17 17 20
62 71 80 72 76 90 97 103 106 110 110 103 92 87 94 83 78 72 66 64 59 44 34 36 36 35 35 40 30 25 26 29 20 18 15 15 12 12 15 14 16 14 17
78 79 80 77 51 93 95 92 87 97 92 80 78 83 81 71 78 68 63 62 56 43 34 37 35 36 38 33 24 25 25 22 20 20 18 16 20 20 14 14 13 14 15
78 81 77 53 78 95 99 100 94 82 85 81 76 66 62 63 67 68 61 53 48 41 36 34 36 33 33 33 30 26 28 27 23 19 18 13 15 22 15 15 14 14 17
72 82 86 72 82 100 102 101 101 99 94 77 62 61 57 59 64 65 58 50 46 43 35 32 36 39 36 34 30 32 32 27 23 20 20 23 19 14 15 17 16 19 16
79 86 86 87 96 103 106 102 97 96 92 89 77 66 60 58 58 64 63 58 54 50 43 37 36 41 37 37 35 30 24 26 23 21 20 21 19 17 8 14 21 21 16
73 79 81 94 100 103 101 96 98 104 101 89 81 78 77 72 70 69 66 57 56 49 41 36 40 43 40 38 36 32 34 34 29 24 23 25 21 16 18 17 14 14 15
72 83 82 81 90 93 94 97 103 105 102 96 92 91 87 85 77 76 70 56 54 40 41 43 40 42 41 40 38 37 33 30 25 22 20 21 24 22 19 14 16 21 15
62 69 74 78 82 88 94 95 98 103 100 101 98 92 81 72 70 75 66 50 48 40 45 44 41 45 43 40 34 28 32 31 29 26 25 23 21 18 18 17 17 16 18
54 64 66 67 73 80 86 91 93 100 99 101 93 85 78 74 73 72 61 50 50 47 40 43 40 36 35 33 34 32 32 32 31 29 26 24 22 19 18 16 13 11 17
60 61 65 66 72 81 89 86 88 93 98 88 86 83 77 75 66 70 60 59 54 50 49 44 40 40 38 39 36 31 34 34 32 28 25 25 26 25 21 18 10 11 16
59 70 71 69 77 82 86 83 85 94 92 87 84 81 77 73 72 69 68 59 50 47 45 46 41 41 45 39 43 38 39 39 37 35 28 26 26 22 20 17 19 19 12
53 62 68 76 84 90 92 95 85 83 83 85 84 76 71 74 73 68 61 53 48 43 45 45 44 46 44 45 42 42 39 35 38 37 31 30 30 26 21 20 16 15 15
Wind_Direction_500mb
233 240 228 223 220 212 191 186 213 197 204 206 202 219 211 207 202 197 205 204 196 187 186 183 194 175 165 181 157 123 201 162 118 75 7 358 352 348 20 22 28 18 353
232 223 226 220 217 209 190 200 188 184 203 203 205 211 211 204 193 199 201 198 190 190 183 188 185 191 183 172 209 192 211 134 127 69 32 4 345 342 28 25 18 21 357
231 218 216 214 214 209 199 194 183 195 200 202 206 210 203 200 198 198 198 192 192 183 185 185 182 175 173 169 174 118 95 94 85 98 47 348 321 352 34 41 30 12 8
301 216 208 211 211 208 198 191 193 197 196 201 209 212 198 198 195 192 190 190 182 179 180 181 174 183 185 177 177 174 164 111 55 80 113 303 320 7 51 34 39 7 5
296 221 205 210 206 208 206 198 197 197 198 205 206 199 193 195 192 182 188 185 178 178 175 180 186 185 178 177 164 173 154 139 157 133 166 288 354 25 51 34 51 24 340
316 283 219 206 206 209 202 206 205 207 206 214 207 197 192 188 187 184 190 186 183 178 181 178 181 180 187 186 180 194 190 178 166 163 218 331 21 40 70 55 34 8 21
304 233 219 213 211 210 205 206 210 204 204 205 199 192 191 179 182 185 189 187 178 181 182 170 175 173 173 174 168 166 162 155 153 162 102 72 55 63 69 56 35 50 27
286 222 234 219 210 213 209 209 206 208 207 207 197 194 188 181 186 190 187 179 176 176 167 161 173 169 155 146 148 148 141 126 104 94 85 76 57 62 66 57 47 63 12
277 249 234 228 225 206 202 204 197 195 201 202 194 191 184 180 188 193 182 177 176 165 167 176 186 183 161 144 166 169 137 121 100 87 75 70 48 42 57 79 66 59 33
265 241 232 222 216 203 198 204 202 207 205 193 182 189 187 184 185 189 178 178 171 172 175 180 186 182 174 165 168 176 141 122 97 74 62 57 48 21 40 62 56 66 39
253 244 224 216 215 213 191 193 187 189 186 182 183 187 189 186 179 180 173 175 177 175 178 180 172 174 177 172 162 171 167 131 102 81 72 80 64 13 41 52 52 54 53
257 234 221 206 205 197 191 187 184 183 178 176 183 176 180 179 175 168 173 170 174 180 176 182 178 175 175 173 175 180 153 120 116 125 142 126 146 90 36 39 38 35 43
252 219 215 198 201 189 193 177 175 177 173 178 180 172 172 172 168 164 161 157 152 171 184 167 171 173 176 176 177 150 133 129 138 155 150 112 68 87 78 50 35 30 38
214 205 193 197 194 201 204 189 181 175 178 181 181 176 170 168 166 166 163 160 170 185 182 173 166 162 160 158 148 142 140 151 160 156 147 117 97 86 91 90 79 73 58
202 196 187 183 188 189 181 181 182 183 191 185 183 180 170 171 172 174 168 171 179 186 178 169 161 159 153 152 153 173 170 167 154 144 134 130 126 108 94 87 93 81 80
182 185 182 179 189 184 183 177 178 181 188 186 176 171 168 169 175 177 179 182 185 186 181 168 161 157 158 152 168 145 147 161 161 155 149 159 153 125 107 97 86 90 83
190 192 186 179 187 181 179 177 170 172 178 179 171 170 169 165 179 181 184 186 189 185 182 169 159 162 170 167 174 178 159 166 156 158 153 138 117 120 120 120 104 90 76
198 194 189 182 193 185 180 177 172 169 166 165 165 165 167 169 180 185 192 188 176 171 156 173 173 172 182 173 176 177 188 173 160 159 154 152 144 149 148 131 136 108 93
192 187 190 186 185 182 180 176 174 168 167 166 166 167 169 171 177 184 185 186 178 169 166 184 182 177 178 179 182 194 171 155 170 163 156 147 141 138 124 82 101 113 105
195 192 190 184 181 178 179 179 177 176 177 171 171 169 166 169 174 179 184 186 183 170 171 180 185 188 183 183 182 179 176 178 171 167 164 156 145 150 149 130 122 120 108
188 192 192 187 181 182 178 181 185 187 180 177 172 172 171 174 174 175 177 182 183 173 181 184 189 184 186 187 185 190 196 179 161 172 164 157 155 156 147 140 156 137 111
187 185 189 188 185 181 180 179 182 180 178 176 170 167 171 176 175 174 169 177 174 185 190 190 188 191 193 189 185 184 160 173 177 169 168 159 153 157 150 146 143 131 134
188 189 188 187 184 180 177 180 179 177 178 177 169 168 172 175 177 176 169 174 181 183 186 191 187 181 183 180 183 183 182 180 177 174 163 155 160 162 154 152 159 180 178
187 184 186 186 183 180 176 177 173 178 177 175 173 173 175 176 179 177 175 179 183 188 193 186 187 175 183 185 182 173 190 187 177 167 163 162 176 161 166 158 156 100 116
183 180 181 182 181 178 175 171 175 178 176 175 172 171 178 180 177 176 177 183 192 192 188 179 172 188 192 178 179 190 191 192 169 165 181 188 160 159 166 164 148 149 144
172 176 177 174 172 171 167 166 169 171 173 172 175 172 180 171 173 180 186 188 190 190 179 176 186 192 183 188 193 197 200 199 176 162 166 177 167 163 168 165 154 148 147
Wind_Speed_850mb
62 61 63 74 75 71 76 73 67 61 61 52 47 59 61 48 46 45 42 36 34 33 32 44 33 21 12 7 7 13 7 14 6 9 13 17 24 31 27 32 35 29 32
71 58 66 68 77 65 60 68 64 56 66 60 59 64 56 56 52 47 44 37 43 37 31 36 28 24 20 13 6 14 7 11 16 12 10 9 16 29 20 27 29 21 32
69 54 60 63 71 73 69 69 67 73 75 66 64 57 59 57 55 51 43 39 40 37 35 30 28 21 19 18 15 11 8 12 9 13 9 4 13 21 19 24 25 19 36
47 70 50 71 69 79 77 70 65 65 80 72 67 59 63 59 56 51 47 41 41 38 35 29 23 21 19 16 13 14 15 14 11 12 3 8 19 14 16 28 26 32 27
59 54 57 73 72 72 86 74 70 66 54 60 65 65 66 63 57 53 49 47 45 44 38 36 30 21 13 16 16 18 23 17 17 9 4 14 13 17 24 31 24 33 22
59 48 78 75 81 78 68 80 81 75 72 68 62 67 68 63 54 59 56 54 49 45 46 32 27 20 18 21 15 14 14 20 24 15 11 5 12 18 23 30 30 42 24
42 65 60 68 78 81 82 82 80 82 86 74 75 73 73 60 59 63 58 52 51 46 36 29 25 22 19 19 16 15 17 14 13 7 7 11 16 24 26 29 37 18 28
43 40 69 63 80 78 85 89 80 101 95 100 87 81 74 66 64 64 54 52 50 42 34 32 23 23 25 21 19 18 17 14 15 13 13 20 23 19 20 23 23 21 28
52 38 49 51 69 65 86 91 95 96 110 98 93 86 78 75 65 63 57 56 50 44 42 35 29 23 26 26 23 16 22 22 18 17 22 23 31 28 22 20 22 20 31
54 44 53 57 72 81 73 73 105 105 113 104 99 94 80 72 63 61 59 58 52 46 38 34 29 26 35 35 30 16 20 16 17 23 29 27 25 26 30 25 32 30 31
58 46 55 53 78 83 90 74 103 103 108 104 95 86 76 69 65 64 54 54 49 43 39 34 27 32 36 37 29 25 20 21 23 20 17 17 16 13 24 36 37 43 49
56 48 57 58 77 67 93 103 108 103 103 100 91 82 72 72 75 67 52 44 41 36 37 33 31 33 38 38 35 25 27 29 23 14 8 7 4 10 18 30 35 33 39
57 63 73 76 76 57 95 104 104 101 104 106 96 86 81 84 79 68 55 41 37 33 29 26 30 32 36 34 28 34 33 27 21 16 9 7 14 22 18 20 25 28 27
56 69 84 76 68 64 81 98 100 104 106 106 94 86 91 90 82 73 63 53 50 44 30 30 30 33 33 35 41 34 28 23 21 18 13 12 13 13 16 16 17 17 20
62 71 80 72 76 90 97 103 106 110 110 103 92 87 94 83 78 72 66 64 59 44 34 36 36 35 35 40 30 25 26 29 20 18 15 15 12 12 15 14 16 14 17
78 79 80 77 51 93 95 92 87 97 92 80 78 83 81 71 78 68 63 62 56 43 34 37 35 36 38 33 24 25 25 22 20 20 18 16 20 20 14 14 13 14 15
78 81 77 53 78 95 99 100 94 82 85 81 76 66 62 63 67 68 61 53 48 41 36 34 36 33 33 33 30 26 28 27 23 19 18 13 15 22 15 15 14 14 17
72 82 86 72 82 100 102 101 101 99 94 77 62 61 57 59 64 65 58 50 46 43 35 32 36 39 36 34 30 32 32 27 23 20 20 23 19 14 15 17 16 19 16
79 86 86 87 96 103 106 102 97 96 92 89 77 66 60 58 58 64 63 58 54 50 43 37 36 41 37 37 35 30 24 26 23 21 20 21 19 17 8 14 21 21 16
73 79 81 94 100 103 101 96 98 104 101 89 81 78 77 72 70 69 66 57 56 49 41 36 40 43 40 38 36 32 34 34 29 24 23 25 21 16 18 17 14 14 15
72 83 82 81 90 93 94 97 103 105 102 96 92 91 87 85 77 76 70 56 54 40 41 43 40 42 41 40 38 37 33 30 25 22 20 21 24 22 19 14 16 21 15
62 69 74 78 82 88 94 95 98 103 100 101 98 92 81 72 70 75 66 50 48 40 45 44 41 45 43 40 34 28 32 31 29 26 25 23 21 18 18 17 17 16 18
54 64 66 67 73 80 86 91 93 100 99 101 93 85 78 74 73 72 61 50 50 47 40 43 40 36 35 33 34 32 32 32 31 29 26 24 22 19 18 16 13 11 17
60 61 65 66 72 81 89 86 88 93 98 88 86 83 77 75 66 70 60 59 54 50 49 44 40 40 38 39 36 31 34 34 32 28 25 25 26 25 21 18 10 11 16
59 70 71 69 77 82 86 83 85 94 92 87 84 81 77 73 72 69 68 59 50 47 45 46 41 41 45 39 43 38 39 39 37 35 28 26 26 22 20 17 19 19 12
53 62 68 76 84 90 92 95 85 83 83 85 84 76 71 74 73 68 61 53 48 43 45 45 44 46 44 45 42 42 39 35 38 37 31 30 30 26 21 20 16 15 15
Wind_Direction_850mb
233 240 228 223 220 212 191 186 213 197 204 206 202 219 211 207 202 197 205 204 196 187 186 183 194 175 165 181 157 123 201 162 118 75 7 358 352 348 20 22 28 18 353
232 223 226 220 217 209 190 200 188 184 203 203 205 211 211 204 193 199 201 198 190 190 183 188 185 191 183 172 209 192 211 134 127 69 32 4 345 342 28 25 18 21 357
231 218 216 214 214 209 199 194 183 195 200 202 206 210 203 200 198 198 198 192 192 183 185 185 182 175 173 169 174 118 95 94 85 98 47 348 321 352 34 41 30 12 8
301 216 208 211 211 208 198 191 193 197 196 201 209 212 198 198 195 192 190 190 182 179 180 181 174 183 185 177 177 174 164 111 55 80 113 303 320 7 51 34 39 7 5
296 221 205 210 206 208 206 198 197 197 198 205 206 199 193 195 192 182 188 185 178 178 175 180 186 185 178 177 164 173 154 139 157 133 166 288 354 25 51 34 51 24 340
316 283 219 206 206 209 202 206 205 207 206 214 207 197 192 188 187 184 190 186 183 178 181 178 181 180 187 186 180 194 190 178 166 163 218 331 21 40 70 55 34 8 21
304 233 219 213 211 210 205 206 210 204 204 205 199 192 191 179 182 185 189 187 178 181 182 170 175 173 173 174 168 166 162 155 153 162 102 72 55 63 69 56 35 50 27
286 222 234 219 210 213 209 209 206 208 207 207 197 194 188 181 186 190 187 179 176 176 167 161 173 169 155 146 148 148 141 126 104 94 85 76 57 62 66 57 47 63 12
277 249 234 228 225 206 202 204 197 195 201 202 194 191 184 180 188 193 182 177 176 165 167 176 186 183 161 144 166 169 137 121 100 87 75 70 48 42 57 79 66 59 33
265 241 232 222 216 203 198 204 202 207 205 193 182 189 187 184 185 189 178 178 171 172 175 180 186 182 174 165 168 176 141 122 97 74 62 57 48 21 40 62 56 66 39
253 244 224 216 215 213 191 193 187 189 186 182 183 187 189 186 179 180 173 175 177 175 178 180 172 174 177 172 162 171 167 131 102 81 72 80 64 13 41 52 52 54 53
257 234 221 206 205 197 191 187 184 183 178 176 183 176 180 179 175 168 173 170 174 180 176 182 178 175 175 173 175 180 153 120 116 125 142 126 146 90 36 39 38 35 43
252 219 215 198 201 189 193 177 175 177 173 178 180 172 172 172 168 164 161 157 152 171 184 167 171 173 176 176 177 150 133 129 138 155 150 112 68 87 78 50 35 30 38
214 205 193 197 194 201 204 189 181 175 178 181 181 176 170 168 166 166 163 160 170 185 182 173 166 162 160 158 148 142 140 151 160 156 147 117 97 86 91 90 79 73 58
202 196 187 183 188 189 181 181 182 183 191 185 183 180 170 171 172 174 168 171 179 186 178 169 161 159 153 152 153 173 170 167 154 144 134 130 126 108 94 87 93 81 80
182 185 182 179 189 184 183 177 178 181 188 186 176 171 168 169 175 177 179 182 185 186 181 168 161 157 158 152 168 145 147 161 161 155 149 159 153 125 107 97 86 90 83
190 192 186 179 187 181 179 177 170 172 178 179 171 170 169 165 179 181 184 186 189 185 182 169 159 162 170 167 174 178 159 166 156 158 153 138 117 120 120 120 104 90 76
198 194 189 182 193 185 180 177 172 169 166 165 165 165 167 169 180 185 192 188 176 171 156 173 173 172 182 173 176 177 188 173 160 159 154 152 144 149 148 131 136 108 93
192 187 190 186 185 182 180 176 174 168 167 166 166 167 169 171 177 184 185 186 178 169 166 184 182 177 178 179 182 194 171 155 170 163 156 147 141 138 124 82 101 113 105
195 192 190 184 181 178 179 179 177 176 177 171 171 169 166 169 174 179 184 186 183 170 171 180 185 188 183 183 182 179 176 178 171 167 164 156 145 150 149 130 122 120 108
188 192 192 187 181 182 178 181 185 187 180 177 172 172 171 174 174 175 177 182 183 173 181 184 189 184 186 187 185 190 196 179 161 172 164 157 155 156 147 140 156 137 111
187 185 189 188 185 181 180 179 182 180 178 176 170 167 171 176 175 174 169 177 174 185 190 190 188 191 193 189 185 184 160 173 177 169 168 159 153 157 150 146 143 131 134
188 189 188 187 184 180 177 180 179 177 178 177 169 168 172 175 177 176 169 174 181 183 186 191 187 181 183 180 183 183 182 180 177 174 163 155 160 162 154 152 159 180 178
187 184 186 186 183 180 176 177 173 178 177 175 173 173 175 176 179 177 175 179 183 188 193 186 187 175 183 185 182 173 190 187 177 167 163 162 176 161 166 158 156 100 116
183 180 181 182 181 178 175 171 175 178 176 175 172 171 178 180 177 176 177 183 192 192 188 179 172 188 192 178 179 190 191 192 169 165 181 188 160 159 166 164 148 149 144
172 176 177 174 172 171 167 166 169 171 173 172 175 172 180 171 173 180 186 188 190 190 179 176 186 192 183 188 193 197 200 199 176 162 166 177 167 163 168 165 154 148 147